Погода в Шымкенте

Погода в Шымкенте : погода сейчас, прогноз погоды и архив. Всё, что Вы хотите узнать о погоде в Шымкенте!

Поиск расширенной информации на нашем сайте:

Другие новости

Новости СМИ2

Главная страница сайта

Новости сайта

03.07.2017

Напоминаем, что на нашем специализированном сайте Метеоцентр.Азия вы можете получить высокодетализированные автоматические прогнозы погоды по пунктам России, СНГ и мира в авиационном формате (включающие направление и скорость ветра, видимость, явления погоды, количество и форму облачности, нижнюю и верхнюю границу облачности).


Погода в Шымкенте - сегодня

Время (UTC), дата Ветер
(°,м/с) 
Видим.   Явления Облачность Т
(°С)
Тd
(°С)
f(%) Тe
(°С)
Pmin
(гПа)
dP
(гПа)
Po
(мм)
O2
(г/м3)
Тmin Tmax R s Состояние
почвы
00 19.02.18 100 (В) н/о    ясно 
-5.3 -10.3 68 -5  1025.4  -2.2  713  294           
06 19.02.18 110 (В) 20000 м    8/0 верхняя 
[Ci ing]
+6.6 -6 40 +5  1019.8  -0.9  711  280  -5.5         
09 19.02.18 120 (ЮВ) 20000 м    6/0 верхняя 
[Ci ing]
+11 -4.7 33 +10  1016.7  -1.8  710  275           
12 19.02.18 110 (В) 20000 м    8/0 средняя, верхняя 
[Sc|Ac trans|Ci ing]
+6.9 -3.1 49 +7  1017.1  -0.6  709  279           
15 19.02.18 140 (ЮВ) н/о    ясно 
+2.4 -0.9 79 +2  1018.4  709  283    +11.7       
18 19.02.18 130 (ЮВ) н/о    ясно 
+1.4 -4.9 63 +1  1017.4  -1.1  708  284    +11.7       
21 19.02.18 140 (ЮВ) н/о    ясно 
+4.2 -7.4 43 +4  1014.9  -1.7  707  281           
00 20.02.18 140 (ЮВ) н/о    3/0 средняя 
[Ac trans]
+6.5 -5.3 43 +6  1013.2  -1  706  278           
06 20.02.18 140 (ЮВ) 20000 м    8/0 средняя, верхняя 
[Ac trans|Ci ing]
+15.1 -0.5 34 +16  1008.1  -1.1  704  269  +0.8         
09 20.02.18 300 (СЗ) 20000 м    9/0 средняя 
[Sc|Ac trans]
+12.9 +0.4 42 +13  1008.2  -0.5  704  271           
12 20.02.18 240 (ЮЗ) 20000 м    9/8 600 м средняя 
[Sc|Ac trans]
+5.6 -3.9 50 +5  1015.7  5.3  708  280           
15 20.02.18 230 (ЮЗ) н/о    10/8 600 м средняя 
[Sc|Ac trans]
+4.4 -2 63 +5  1015.9  -0.2  708  281    +17.6       
21 20.02.18 230 (ЮЗ) н/о  слаб. ливневой дождь  10/10 600 м кучево-дожд. 
[Cb cap]
+0.8 +0.8 100 -2  1021.7  1.7  711  286           
03 21.02.18 260 (З) 2000 м  слаб. ливневой снег  10/10 600 м кучево-дожд. 
[Cb cap]
+0.6 +0.6 100 1025.8  1.3  714  287        мокрый или
старый снег
50-90% 
09 21.02.18 200 (Ю) 2000 м  слаб. ливневой дождь со снегом  10/10 600 м кучево-дожд. 
[Cb cap]
+2.1 +2.1 100 +3  1025.8  -0.3  714  285           
21 21.02.18 130 (ЮВ) н/о  в посл. час ливневой дождь  10/10 600 м кучево-дожд. 
[Cb cap]
+1.5 +1.5 100 +2  1026.2  -0.3  714  286           
03 22.02.18 110 (В) 2000 м  дымка  8/0 600 м верхняя 
[Ci ing]
+0.9 +0.9 100 +2  1025.2  -0.1  714  286      0.6     
09 22.02.18 040 (СВ) 20000 м    4/0 средняя, верхняя 
[Ac trans|Ci fib]
+10 +3 62 +11  1020.7  -1.2  712  276           
12 22.02.18 340 (С) 20000 м    3/0 средняя, верхняя 
[Ac trans|Ci fib]
+9.1 +3.6 68 +9  1020.4  -0.5  712  277           
15 22.02.18 110 (В) н/о  дымка  ясно 
+3.8 +3.1 95 +5  1021.5  -0.4  712  282    +10.4       
18 22.02.18 120 (ЮВ) н/о    3/0 верхняя 
[Ci ing]
+3.4 +0.2 80 +4  1020.1  -1.4  711  283    +10.4       
21 22.02.18 130 (ЮВ) н/о    6/0 верхняя 
[Ci ing]
+3.6 -1.4 70 +3  1018.2  -1.7  709  282           
00 23.02.18 110 (В) н/о    8/3 600 м средняя 
[Sc|Ac trans]
+2.9 -1 75 +4  1017.1  -1.2  708  282           
06 23.02.18 130 (ЮВ) 20000 м    9/0 верхняя 
[Ci ing]
+14.9 -1.9 31 +16  1013  -0.6  708  270  +2.9         
09 23.02.18 290 (З) 20000 м    8/0 средняя, верхняя 
[Ac trans|Ci ing]
+14.9 +5.1 52 +16  1011.1  -1.6  706  269           
Время (UTC), дата Ветер
(°,м/с) 
Видим.   Явления Облачность Т
(°С)
Тd
(°С)
f(%) Тe
(°С)
Pmin
(гПа)
dP
(гПа)
Po
(мм)
O2
(г/м3)
Тmin Tmax R s Состояние
почвы

Для получения пояснительной информации подведите курсор к названию столбца.

ПОГОДА в Шымкенте - архив

Всё, что Вы хотите узнать о погоде в Шымкенте - удобно и подробно!

Выберите нужную дату (начиная с 1 января 2015* года) и нажмите кнопку "Найти".
Будут отображены архивные сводки погоды по пункту Шымкент, начиная с указанной даты.


Отображать данные в формате CSV (для использования в таблицах Excel)


Внимание! Наш архив погоды предназначен исключительно для личного некоммерческого использования в познавательных целях. Если Вам необходимы официальные справки о состоянии погоды (для производственных, юридических, коммерческих и т.п. целей), обращайтесь в органы Росгидромета.

*Примечание: данная дата относится к архиву по метеостанциям СССР (Россия, СНГ, Балтия).
Архив по метеостанциям Зарубежной Европы и Азии (кроме Китая) хранится 10 дней, по другим регионам земного шара (Китай, Африка, Америка, Австралия, Океания) - 1 день.

Шымкент - район местоположения метеостанции


Название, широта, долгота, высота метеостанции:
Шымкент (город) 42.3°ш. 69.7°д. 604 м над ур. моря [Казахстан]

Дополнительная информация

В oтличие oт бoльшинства пoгoдных сайтoв мы публикуем пoдрoбную метеoинфoрмацию в детальнoм прoфессиoнальнoм фoрмате.

Характеристики температуры и влажнoсти вoздуха измеряются на высoте 2 м в тени вдали oт зданий и деревьев.
Скoрoсть ветра измеряется на высoте 10 м (на урoвне рoста челoвека скoрoсть ветра ниже в 1.5-2 раза). Если метеoстанция нахoдится в гoрoде или в лесу, тo скoрoсть ветра занижена на 2-4 м/с пo сравнению с oткрытым местoм. Скoрoсть ветра над акватoриями крупных рек и oзёр, а также на вершинах хoлмoв на 2-5 м/с выше, чем в oбычных услoвиях.
Атмoсфернoе давление в разных тoчках местнoсти мoжет значительнo oтличаться oт давления на метеoстанции, в зависимoсти oт услoвий рельефа (при пoдъёме на 10 м давление пoнижается примернo на 1 мм рт.ст.).